| time (UTC) | temp F | wind direction | speed MPH | gust MPH | rain 1hr in | rain 24hr in | rain mn in | humidity % | barometer mb |
| 20260505073048 | 69 | 295 | 0.0 | 3.0 | 0.00 | 0.10 | 0.02 | 28 | 1017.6 |
| 20260505071550 | 70 | 62 | 0.0 | 1.0 | 0.00 | 0.10 | 0.02 | 31 | 1017.6 |
| 20260505070037 | 69 | 217 | 0.0 | 4.0 | 0.00 | 0.10 | 0.02 | 33 | 1017.4 |
| 20260505064532 | 69 | 262 | 0.0 | 5.0 | 0.00 | 0.10 | 0.02 | 31 | 1017.3 |
| 20260505063028 | 69 | 281 | 0.0 | 2.0 | 0.00 | 0.10 | 0.02 | 38 | 1017.4 |
| 20260505061523 | 68 | 285 | 0.0 | 4.0 | 0.00 | 0.10 | 0.02 | 38 | 1017.7 |
| 20260505060020 | 67 | 269 | 0.0 | 2.0 | 0.00 | 0.10 | 0.02 | 44 | 1017.7 |
| 20260505054525 | 68 | 172 | 0.0 | 6.0 | 0.00 | 0.10 | 0.02 | 38 | 1017.6 |
| 20260505053024 | 67 | 85 | 0.0 | 4.0 | 0.00 | 0.10 | 0.02 | 42 | 1017.6 |
| 20260505051518 | 67 | 131 | 0.0 | 1.0 | 0.00 | 0.10 | 0.02 | 41 | 1017.8 |
| 20260505041504 | 66 | 202 | 0.0 | 3.0 | 0.00 | 0.10 | 0.02 | 40 | 1017.9 |
| 20260505040106 | 67 | 110 | 0.0 | 2.0 | 0.00 | 0.10 | 0.02 | 42 | 1018.1 |
| 20260505034557 | 67 | 106 | 0.0 | 2.0 | 0.00 | 0.10 | 0.02 | 40 | 1018.1 |
| 20260505033055 | 66 | 246 | 0.0 | 2.0 | 0.00 | 0.10 | 0.02 | 46 | 1018.2 |
| 20260505031552 | 65 | 67 | 0.0 | 3.0 | 0.00 | 0.10 | 0.02 | 46 | 1018.4 |
| 20260505030049 | 65 | 139 | 1.0 | 3.0 | 0.00 | 0.10 | 0.02 | 45 | 1018.6 |
| 20260505024547 | 62 | 150 | 0.0 | 2.0 | 0.00 | 0.10 | 0.02 | 49 | 1018.6 |
| 20260505023051 | 62 | 37 | 0.0 | 7.0 | 0.00 | 0.10 | 0.02 | 47 | 1018.4 |
| 20260505021543 | 64 | 281 | 0.0 | 7.0 | 0.00 | 0.10 | 0.02 | 45 | 1018.5 |
| 20260505020041 | 64 | 64 | 2.0 | 11.0 | 0.00 | 0.10 | 0.02 | 45 | 1018.5 |
| 20260505014538 | 63 | 278 | 0.0 | 5.0 | 0.00 | 0.10 | 0.02 | 45 | 1018.6 |
| 20260505013034 | 62 | 39 | 0.0 | 6.0 | 0.00 | 0.10 | 0.02 | 49 | 1018.4 |
| 20260505011530 | 60 | 318 | 0.0 | 4.0 | 0.00 | 0.10 | 0.02 | 49 | 1018.4 |
| 20260505010029 | 59 | 175 | 2.0 | 7.0 | 0.00 | 0.10 | 0.02 | 51 | 1018.3 |
| 20260505004528 | 59 | 32 | 0.0 | 6.0 | 0.00 | 0.10 | 0.02 | 52 | 1018.3 |
| 20260505003027 | 58 | 165 | 1.0 | 8.0 | 0.00 | 0.10 | 0.02 | 52 | 1018.3 |
| 20260505001525 | 60 | 278 | 0.0 | 8.0 | 0.00 | 0.10 | 0.02 | 51 | 1018.1 |
| 20260505000124 | 59 | 246 | 0.0 | 5.0 | 0.00 | 0.10 | 0.02 | 53 | 1018.0 |
| 20260504234519 | 59 | 77 | 0.0 | 8.0 | 0.00 | 0.10 | 0.02 | 55 | 1017.6 |
| 20260504233016 | 58 | 247 | 0.0 | 3.0 | 0.00 | 0.10 | 0.02 | 57 | 1017.5 |
| 20260504231513 | 57 | 270 | 0.0 | 4.0 | 0.00 | 0.10 | 0.02 | 59 | 1017.4 |
| 20260504230011 | 56 | 268 | 0.0 | 5.0 | 0.00 | 0.10 | 0.02 | 60 | 1017.6 |
| 20260504224509 | 56 | 84 | 1.0 | 5.0 | 0.00 | 0.10 | 0.02 | 62 | 1017.4 |
| 20260504223005 | 55 | 37 | 0.0 | 2.0 | 0.00 | 0.10 | 0.02 | 70 | 1017.0 |
| 20260504221600 | 53 | 111 | 0.0 | 1.0 | 0.00 | 0.10 | 0.02 | 72 | 1016.8 |
| 20260504220115 | 51 | 30 | 0.0 | 2.0 | 0.00 | 0.10 | 0.02 | 75 | 1016.7 |
| 20260504214556 | 51 | 96 | 0.0 | 1.0 | 0.00 | 0.10 | 0.02 | 78 | 1016.6 |
| 20260504213056 | 49 | 37 | 0.0 | 2.0 | 0.00 | 0.10 | 0.02 | 82 | 1016.5 |
| 20260504211553 | 47 | 4 | 0.0 | 1.0 | 0.00 | 0.10 | 0.02 | 85 | 1016.4 |
| 20260504210046 | 45 | 37 | 0.0 | 2.0 | 0.00 | 0.10 | 0.02 | 87 | 1015.9 |
| 20260504204544 | 44 | 157 | 0.0 | 0.0 | 0.00 | 0.10 | 0.02 | 89 | 1015.7 |
| 20260504203042 | 0 | 0.0 | 0.0 | 0.00 | 0.10 | 0.02 | 1015.5 | ||
| 20260504201538 | 0 | 0.0 | 0.0 | 0.00 | 0.10 | 0.02 | 1015.3 | ||
| 20260504200040 | 0 | 0.0 | 0.0 | 0.00 | 0.10 | 0.02 | 1015.0 | ||
| 20260504194528 | 0 | 0.0 | 0.0 | 0.00 | 0.11 | 0.02 | 1014.6 | ||
| 20260504193023 | 0 | 0.0 | 0.0 | 0.01 | 0.11 | 0.02 | 1014.5 | ||
| 20260504191535 | 43 | 54 | 0.0 | 0.0 | 0.02 | 0.11 | 0.02 | 88 | 1014.4 |
| 20260504190018 | 44 | 47 | 0.0 | 4.0 | 0.02 | 0.11 | 0.02 | 87 | 1014.1 |
| 20260504184515 | 44 | 345 | 2.0 | 16.0 | 0.02 | 0.11 | 0.02 | 85 | 1013.5 |
| 20260504183111 | 46 | 214 | 0.0 | 11.0 | 0.01 | 0.10 | 0.02 | 80 | 1013.3 |
| 20260504181508 | 45 | 245 | 0.0 | 2.0 | 0.00 | 0.09 | 0.01 | 78 | 1012.9 |
| 20260504180005 | 45 | 138 | 0.0 | 4.0 | 0.00 | 0.09 | 0.01 | 78 | 1012.7 |
| 20260504174504 | 45 | 138 | 0.0 | 2.0 | 0.00 | 0.09 | 0.01 | 79 | 1012.4 |
| 20260504173003 | 45 | 248 | 0.0 | 7.0 | 0.00 | 0.09 | 0.01 | 80 | 1012.3 |
| 20260504171558 | 47 | 266 | 0.0 | 9.0 | 0.01 | 0.09 | 0.01 | 76 | 1011.8 |
| 20260504081520 | 61 | 269 | 8.0 | 24.0 | 0.03 | 0.04 | 0.04 | 57 | 996.9 |